| time (UTC) | temp C | wind direction | speed KPH | gust KPH | rain 1hr cm | rain 24hr cm | rain mn cm | humidity % | barometer mb |
| 20260503210115 | 13 | 220 | 27.4 | 0.0 | 0.00 | 0.00 | 0.00 | 56 | 977.5 |
| 20260503204546 | 13 | 224 | 27.4 | 0.0 | 0.00 | 0.00 | 0.00 | 53 | 978.4 |
| 20260503203105 | 13 | 228 | 29.0 | 0.0 | 0.00 | 0.00 | 0.00 | 56 | 978.1 |
| 20260503201546 | 13 | 233 | 30.6 | 0.0 | 0.00 | 0.00 | 0.00 | 56 | 978.0 |
| 20260503200116 | 13 | 236 | 29.0 | 0.0 | 0.00 | 0.00 | 0.00 | 56 | 978.0 |
| 20260503194546 | 13 | 239 | 30.6 | 0.0 | 0.00 | 0.00 | 0.00 | 51 | 978.5 |
| 20260503193108 | 13 | 241 | 32.2 | 0.0 | 0.00 | 0.00 | 0.00 | 51 | 978.5 |
| 20260503191547 | 13 | 241 | 30.6 | 0.0 | 0.00 | 0.00 | 0.00 | 51 | 978.5 |
| 20260503190119 | 13 | 238 | 32.2 | 0.0 | 0.00 | 0.00 | 0.00 | 51 | 978.5 |
| 20260503184547 | 13 | 237 | 32.2 | 0.0 | 0.00 | 0.00 | 0.00 | 47 | 979.3 |
| 20260503183556 | 14 | 234 | 32.2 | 0.0 | 0.00 | 0.00 | 0.00 | 47 | 979.3 |
| 20260503181546 | 15 | 239 | 33.8 | 0.0 | 0.00 | 0.00 | 0.00 | 43 | 979.5 |
| 20260503180121 | 15 | 235 | 35.4 | 0.0 | 0.00 | 0.00 | 0.00 | 43 | 979.5 |
| 20260503174545 | 14 | 242 | 33.8 | 0.0 | 0.00 | 0.00 | 0.00 | 49 | 980.0 |
| 20260503173106 | 14 | 240 | 35.4 | 0.0 | 0.00 | 0.00 | 0.00 | 46 | 979.3 |
| 20260503170115 | 14 | 240 | 32.2 | 0.0 | 0.00 | 0.00 | 0.00 | 46 | 979.4 |
| 20260503160123 | 12 | 236 | 29.0 | 0.0 | 0.00 | 0.00 | 0.00 | 52 | 979.0 |
| 20260503150119 | 11 | 240 | 27.4 | 0.0 | 0.00 | 0.00 | 0.00 | 56 | 979.8 |
| 20260503140124 | 10 | 233 | 27.4 | 0.0 | 0.00 | 0.00 | 0.00 | 57 | 979.8 |
| 20260503130119 | 7 | 235 | 20.9 | 0.0 | 0.00 | 0.00 | 0.00 | 61 | 980.2 |
| 20260503120125 | 5 | 223 | 17.7 | 0.0 | 0.00 | 0.00 | 0.00 | 65 | 980.4 |
| 20260503110119 | 3 | 229 | 14.5 | 0.0 | 0.00 | 0.00 | 0.00 | 67 | 979.4 |
| 20260503100120 | 2 | 220 | 12.9 | 0.0 | 0.00 | 0.00 | 0.00 | 69 | 979.4 |
| 20260503090115 | 1 | 210 | 11.3 | 0.0 | 0.00 | 0.00 | 0.00 | 72 | 979.5 |
| 20260503081546 | 1 | 200 | 12.9 | 0.0 | 0.00 | 0.00 | 0.00 | 69 | 979.9 |
| 20260503080111 | 1 | 196 | 12.9 | 0.0 | 0.00 | 0.00 | 0.00 | 71 | 979.5 |
| 20260503071545 | 1 | 185 | 11.3 | 0.0 | 0.00 | 0.00 | 0.00 | 68 | 980.1 |
| 20260503070114 | 1 | 187 | 11.3 | 0.0 | 0.00 | 0.00 | 0.00 | 68 | 980.1 |
| 20260503060127 | 2 | 190 | 9.7 | 0.0 | 0.00 | 0.00 | 0.00 | 67 | 981.0 |
| 20260503054546 | 2 | 196 | 9.7 | 0.0 | 0.00 | 0.00 | 0.00 | 67 | 981.5 |
| 20260503051545 | 1 | 192 | 8.0 | 0.0 | 0.00 | 0.00 | 0.00 | 70 | 981.7 |
| 20260503050115 | 1 | 196 | 8.0 | 0.0 | 0.00 | 0.00 | 0.00 | 70 | 981.7 |
| 20260503044545 | 1 | 198 | 8.0 | 0.0 | 0.00 | 0.00 | 0.00 | 66 | 982.0 |
| 20260503043105 | 1 | 200 | 8.0 | 0.0 | 0.00 | 0.00 | 0.00 | 66 | 981.5 |
| 20260503041546 | 2 | 200 | 8.0 | 0.0 | 0.00 | 0.00 | 0.00 | 66 | 981.5 |
| 20260503040117 | 2 | 207 | 8.0 | 0.0 | 0.00 | 0.00 | 0.00 | 66 | 981.5 |
| 20260503034545 | 2 | 216 | 6.4 | 0.0 | 0.00 | 0.00 | 0.00 | 63 | 982.5 |
| 20260503033106 | 2 | 218 | 8.0 | 0.0 | 0.00 | 0.00 | 0.00 | 64 | 982.8 |
| 20260503031545 | 2 | 214 | 8.0 | 0.0 | 0.00 | 0.00 | 0.00 | 64 | 982.8 |
| 20260503030116 | 3 | 219 | 8.0 | 0.0 | 0.00 | 0.00 | 0.00 | 64 | 982.8 |
| 20260503024545 | 3 | 218 | 8.0 | 0.0 | 0.00 | 0.00 | 0.00 | 61 | 983.2 |
| 20260503023105 | 3 | 225 | 6.4 | 0.0 | 0.00 | 0.00 | 0.00 | 66 | 983.3 |
| 20260503021545 | 3 | 230 | 8.0 | 0.0 | 0.00 | 0.00 | 0.00 | 66 | 983.2 |
| 20260503020115 | 3 | 234 | 8.0 | 0.0 | 0.00 | 0.00 | 0.00 | 66 | 983.2 |
| 20260503014545 | 3 | 240 | 8.0 | 0.0 | 0.00 | 0.00 | 0.00 | 61 | 982.7 |
| 20260503013103 | 3 | 245 | 8.0 | 0.0 | 0.00 | 0.00 | 0.00 | 61 | 982.7 |
| 20260503011545 | 4 | 252 | 6.4 | 0.0 | 0.00 | 0.00 | 0.00 | 61 | 982.7 |
| 20260503010113 | 5 | 257 | 8.0 | 0.0 | 0.00 | 0.00 | 0.00 | 61 | 982.7 |
| 20260503004545 | 5 | 262 | 6.4 | 0.0 | 0.00 | 0.00 | 0.00 | 51 | 983.4 |
| 20260503003059 | 5 | 259 | 4.8 | 0.0 | 0.00 | 0.00 | 0.00 | 51 | 983.6 |
| 20260503001545 | 6 | 286 | 4.8 | 0.0 | 0.00 | 0.00 | 0.00 | 51 | 983.6 |
| 20260503000116 | 6 | 292 | 6.4 | 0.0 | 0.00 | 0.00 | 0.00 | 51 | 983.6 |
| 20260502234546 | 6 | 296 | 9.7 | 0.0 | 0.00 | 0.00 | 0.00 | 42 | 983.4 |
| 20260502233058 | 7 | 283 | 9.7 | 0.0 | 0.00 | 0.00 | 0.00 | 44 | 983.5 |
| 20260502231546 | 7 | 285 | 11.3 | 0.0 | 0.00 | 0.00 | 0.00 | 44 | 983.5 |
| 20260502230113 | 7 | 286 | 12.9 | 0.0 | 0.00 | 0.00 | 0.00 | 44 | 983.5 |
| 20260502224546 | 7 | 285 | 14.5 | 0.0 | 0.00 | 0.00 | 0.00 | 43 | 983.9 |
| 20260502223104 | 7 | 283 | 16.1 | 0.0 | 0.00 | 0.00 | 0.00 | 44 | 984.6 |
| 20260502221547 | 7 | 284 | 17.7 | 0.0 | 0.00 | 0.00 | 0.00 | 44 | 984.6 |
| 20260502220113 | 7 | 283 | 16.1 | 0.0 | 0.00 | 0.00 | 0.00 | 44 | 984.6 |
| 20260502214546 | 7 | 285 | 17.7 | 0.0 | 0.00 | 0.00 | 0.00 | 46 | 984.7 |
| 20260502213104 | 7 | 280 | 16.1 | 0.0 | 0.00 | 0.00 | 0.00 | 43 | 984.3 |
| 20260502211546 | 7 | 277 | 16.1 | 0.0 | 0.00 | 0.00 | 0.00 | 43 | 984.3 |